Regional Weather Roundup
Issued by NWS

Home | Current Version | Previous Version | Text Only | Print | Product List | Glossary On
Versions: 1 2 3 4 5 6 7 8 9 10 11 12 13 14 15 16 17 18 19 20 21 22 23 24 25 26 27 28 29 30 31 32 33 34 35 36 37 38 39 40 41 42 43 44 45 46 47 48 49 50
000
ASUS42 KTBW 152017
RWRFL
FLORIDA REGIONAL WEATHER ROUNDUP
NATIONAL WEATHER SERVICE TAMPA BAY RUSKIN FL
300 PM EST FRI DEC 15 2017

NOTE: "FAIR" INDICATES FEW OR NO CLOUDS BELOW 12,000 FEET WITH NO
SIGNIFICANT WEATHER AND/OR OBSTRUCTIONS TO VISIBILITY.

FLZ001>010-012>015-112-114-115-152100-
PANHANDLE FLORIDA

CITY           SKY/WX    TMP DP  RH WIND       PRES   REMARKS
PENSACOLA      LGT RAIN  49  37  63 N12       30.14F WCI  44
PENSACOLA NAS  CLOUDY    49  37  63 N10       30.13F WCI  45
MILTON NAS     CLOUDY    48  34  58 VRB6      30.14
CRESTVIEW      LGT RAIN  48  33  56 N8G18     30.17R WCI  44
DUKE FIELD     LGT RAIN  48  34  57 N15G21    30.14  WCI  42
VALPARAISO     CLOUDY    51  34  53 N12G20    30.13R
MARY ESTHER    CLOUDY    51  36  57 N17G23    30.12
PANAMA CITY    CLOUDY    53  42  66 NW8       30.10S
TYNDALL AFB    CLOUDY    55  40  58 N9        30.11R
APALACHICOLA   CLOUDY    65  43  44 NW8       30.08R

STATION/POSITION SKY/WX   TEMP    WIND        PRES    WAVE   SWELL
                          AIR SEA DIR/SP/G            HT/PER HT/PER
                          (F)     (DEG/KT/KT) (MB)    (FT/S) (FT/S)
29.2N   88.2W              58 71   10/ 17/ 21 1020.9F   4/ 5
28.8N   86.0W              63 74  360/ 16/ 19 1018.7R   2/ 4
PANAMA CITY BEAC           53 62  350/  8/ 11 1019.9R
TOWER C                    62     320/ 11/ 11 1019.3R

$$
FLZ011-016>038-118-127-128-134-139-239-152100-
NORTH FLORIDA

CITY           SKY/WX    TMP DP  RH WIND       PRES   REMARKS
MARIANNA       CLOUDY    52  39  61 NW8       30.11S
TALLAHASSEE    CLOUDY    60  42  51 NW13      30.09R
PERRY          MOSUNNY   68  51  55 W8        30.07S
LIVE OAK       MOSUNNY   68  55  64 W12       30.06S
CROSS CITY     PTSUNNY   72  59  63 W12       30.10R
LAKE CITY      FAIR      68  55  64 W15       30.05R
GAINESVILLE    PTSUNNY   72  54  53 W14       30.06S
WILLISTON      SUNNY     75  57  53 W9        30.05S
PALATKA        FAIR      73  54  49 W12       30.03F
MAYPORT NAS    PTSUNNY   71  56  58 W7        30.02R
JACKSONVILLE   CLOUDY    71  56  58 W10       30.02R
JAX NAS        PTSUNNY   87  55  33 W15G23    30.03S
JAX CECIL      PTSUNNY   72  57  60 W14       30.03S
ST AUGUSTINE   MOSUNNY   71  56  58 W8        30.03S
PALM COAST     MOSUNNY   72  59  64 W13G18    30.03R

STATION/POSITION SKY/WX   TEMP    WIND        PRES    WAVE   SWELL
                          AIR SEA DIR/SP/G            HT/PER HT/PER
                          (F)     (DEG/KT/KT) (MB)    (FT/S) (FT/S)
SHELL POINT      NOT AVBL
KEATON BEACH               60     270/  3/  3 1018.0R
CEDAR KEY                  65     210/  4/  4 1018.4F
FERNANDINA                 68 57  240/  8/ 12 1017.0F
30.7N   81.3W                 63                N/A     1
MAYPORT                    69 60  270/ 11/ 14 1016.8R
31.4N   80.9W              59 58  190/ 10/ 12 1015.6F   1/11
ST AUGUSTINE               71 64  270/  6/  7 1016.8F

$$
FLZ040-043>046-052-053-057-058-063-144-152100-
INTERIOR CENTRAL FLORIDA

CITY           SKY/WX    TMP DP  RH WIND       PRES   REMARKS
OCALA          SUNNY     74  54  49 SW15      30.05S
LEESBURG       CLOUDY    75  52  44 W13G21    30.05R
SANFORD        MOSUNNY   75  55  49 SW17      30.03S
ORLANDO EXEC   CLOUDY    77  58  51 SW12      30.04R
ORLANDO INTL   PTSUNNY   76  58  53 SW15      30.05R
KISSIMMEE      MOSUNNY   76  60  57 W13       30.05F
WINTER HAVEN   MOSUNNY   76  57  51 W14       30.07R
LAKELAND       MOSUNNY   75  57  53 W14G20    30.07S
BARTOW         MOSUNNY   73  57  56 W10G17    30.07R
SEBRING        FAIR      79  56  45 W9        30.05F
OKEECHOBEE     MOSUNNY   77  54  44 SW6       30.06S

$$
FLZ041-047-054-059-064-141-147-152100-
EAST CENTRAL FLORIDA

CITY           SKY/WX    TMP DP  RH WIND       PRES   REMARKS
ORMOND BEACH   MOSUNNY   73  59  60 W12G17    30.03R
DAYTONA BEACH  PTSUNNY   76  59  55 W12       30.02S
DELAND         MOSUNNY   75  57  53 W12G17    30.02S
NEW SMYRNA BEA MOSUNNY   77  55  47 SW12G20   30.03S
JFK SPACE CTR  SUNNY     75  61  61 W13       30.03S
TITUSVILLE     MOSUNNY   79  55  44 W17       30.05R
CAPE CANAVERAL PTSUNNY   76  57  51 SW13      30.03R
PATRICK AFB    MOSUNNY   74  58  56 W14       30.04S
MELBOURNE      PTSUNNY   77  57  50 W13       30.05R
VERO BEACH     CLOUDY    77  53  43 SW13      30.05F
FT PIERCE      CLOUDY    76  55  48 W9G17     30.06R
STUART         SUNNY     79  55  44 W6        30.07S

STATION/POSITION SKY/WX   TEMP    WIND        PRES    WAVE   SWELL
                          AIR SEA DIR/SP/G            HT/PER HT/PER
                          (F)     (DEG/KT/KT) (MB)    (FT/S) (FT/S)
28.5N   80.2W              72 75  200/ 12/ 14 1017.3F   2/ 4   2/11
TRIDENT PIER               73 68  230/ 10/ 13 1018.8S
28.4N   80.5W                 68                N/A     1/11
27.5N   80.2W                 71                N/A     1/11

$$
FLZ050-056-061-142-242-148-248-149-249-151-251-155-255-
160-260-152100-
WEST CENTRAL FLORIDA

CITY           SKY/WX    TMP DP  RH WIND       PRES   REMARKS
CRYSTAL RIVER  FAIR      72  54  53 W8        30.07S
INVERNESS      FAIR      73  54  49 W6        30.06S
BROOKSVILLE    SUNNY     74  51  44 NW12      30.07S
CLEARWATER AIR FAIR      72  54  53 NW5       30.07R
ST PETE CLEARW SUNNY     75  57  53 SW8       30.06F
TAMPA INTL     PTSUNNY   75  56  51 W6        30.07S
TAMPA EXEC     MOSUNNY   77  55  47 SW7       30.07S
PLANT CITY     MOSUNNY   77  57  50 W10       30.08F
MACDILL AFB    PTSUNNY   72  59  64 SW3       30.07S
PETER O KNIGHT   N/A     73  57  56 W5        30.07F
ST PETERSBURG  MOSUNNY   73  58  59 W10       30.05S
SARASOTA       SUNNY     73  63  70 S13       30.06R
VENICE         NOT AVBL

STATION/POSITION SKY/WX   TEMP    WIND        PRES    WAVE   SWELL
                          AIR SEA DIR/SP/G            HT/PER HT/PER
                          (F)     (DEG/KT/KT) (MB)    (FT/S) (FT/S)
27.3N   84.2W                 76                N/A     2/ 5
CLEARWATER BEACH           69 64  310/  2/  2 1018.6R
MIDDLE TAMPA BAY           68     260/  6/  7 1018.5S
VENICE                     71 67  180/  6/  7 1018.6R

$$
FLZ066-069-070-075>078-162-262-165-265-152100-
SOUTHWEST FLORIDA AND KEYS

CITY           SKY/WX    TMP DP  RH WIND       PRES   REMARKS
PUNTA GORDA    SUNNY     76  58  53 W13       30.09S
FT MYERS       SUNNY     75  56  51 SW9       30.07S
SOUTHWEST INTL SUNNY     75  58  55 SW10      30.07S
NAPLES         SUNNY     76  56  49 W7        30.07S
MARCO ISLAND   SUNNY     76  56  49 SW8       30.08S
IMMOKALEE      FAIR      79  57  47 VRB3      30.08S
MARATHON       SUNNY     74  50  42 N5        30.07S
KEY WEST NAS   MOSUNNY   75  54  47 N6        30.08S
KEY WEST INTL  SUNNY     75  55  49 N8        30.08S

STATION/POSITION SKY/WX   TEMP    WIND        PRES    WAVE   SWELL
                          AIR SEA DIR/SP/G            HT/PER HT/PER
                          (F)     (DEG/KT/KT) (MB)    (FT/S) (FT/S)
NAPLES                        69  240/  4/  5 1018.3S
DRY TORTUGAS               74     130/  8/  9 1018.5S
SAND KEY                   69                 1018.9F
MOLASSES REEF              73 77  350/  3/  3 1018.4F

$$
FLZ067-068-071>074-168-172>174-152100-
SOUTHEAST FLORIDA

CITY           SKY/WX    TMP DP  RH WIND       PRES   REMARKS
W PALM BEACH   PTSUNNY   77  54  44 W6        30.06S
BOCA RATON     SUNNY     77  57  50 VRB5      30.06S
FT LAUDER-EXEC SUNNY     78  53  41 CALM      30.05F
FT LAUDERDALE  MOSUNNY   76  59  55 SE12      30.05S
POMPANO BEACH  MOSUNNY   77  59  53 SE13      30.06S
PEMBROKE PINES SUNNY     80  54  40 CALM      30.07S
OPA LOCKA      SUNNY     79  53  40 VRB3      30.06F
MIAMI          PTSUNNY   77  59  53 SE9       30.06S
WEST KENDALL   SUNNY     79  53  40 NW6       30.06S
HOMESTEAD      SUNNY     78  60  54 S7        30.06S

STATION/POSITION SKY/WX   TEMP    WIND        PRES    WAVE   SWELL
                          AIR SEA DIR/SP/G            HT/PER HT/PER
                          (F)     (DEG/KT/KT) (MB)    (FT/S) (FT/S)
PORT EVERGLADES            74     160/  8/ 12 1018.0F
VIRGINIA KEY               72 71  130/  6/  8 1017.8F
LAKE WORTH                 74 76  170/  5/  8 1018.8F
FOWEY ROCKS                73 76  180/  6/  7 1018.7F
SETTLEMENT POINT           73     260/  5/  6 1018.5F

$$




USA.gov is the U.S. government's official web portal to all federal, state and local government web resources and services.